Flag for Germany Weather past 2 weeks in Kerpen, North Rhine-Westphalia, Germany

41 °F

Passing clouds.

Feels Like: 36 °F
Forecast: 33 / 46 °F
Wind: 8 mph from West

Location: Noervenich

Current Time: Nov 25, 2015 at 9:24:22 PM

Latest Report: Nov 25, 2015 at 8:20 PM

Visibility: N/A

Pressure: 29.77 "Hg

Humidity: 93%

Dew point: 39 °F

Location of KerpenLocation

Historic Weather in Kerpen — Graph


Kerpen temperature yesterday

Maximum temperature yesterday: 39 °F (at 11:20 AM)
Minimum temperature yesterday: 34 °F (at 1:20 AM)
Average temperature yesterday: 36 °F

Past Weeks' High & Low Weather Summary

High63 °F (Nov 17, 9:20 PM)100% (Nov 19, 5:20 PM)30.33 "Hg (Nov 19, 5:20 PM)
Low32 °F (Nov 22, 5:20 PM)59% (Nov 18, 12:02 AM)29.39 "Hg (Nov 21, 12:20 PM)
Average48 °F80%29.95 "Hg
* Reported Nov 10 7:20 PM — Nov 25 7:20 PM, Kerpen, Weather by CustomWeather, © 2015

Note: Actual official high and low records may vary slightly from our data, if they occured in-between our weather recording intervals... More about our weather records


Kerpen weather history for previous 24 hours

Time TempWeatherWind HumidityBarometerVisibility
7:20 PM
Wed, Nov 25
41 °FPassing clouds.6 mph87%29.74 "HgN/A
6:20 PM41 °FPassing clouds.6 mph93%29.71 "HgN/A
5:20 PM41 °FPassing clouds.6 mph93%29.71 "HgN/A
5:02 PM41 °FSprinkles. Partly cloudy.6 mph93%29.71 "HgN/A
4:20 PM41 °FBroken clouds.7 mph93%29.68 "HgN/A
3:20 PM43 °FSprinkles. Broken clouds.9 mph87%29.68 "HgN/A
2:20 PM45 °FSprinkles. Partly sunny.9 mph76%29.68 "HgN/A
1:20 PM45 °FSprinkles. Partly sunny.12 mph87%29.68 "HgN/A
12:20 PM45 °FPartly sunny.13 mph81%29.68 "HgN/A
11:20 AM45 °FSprinkles. Broken clouds.13 mph81%29.71 "Hg4 mi
10:20 AM43 °FSprinkles. Partly sunny.13 mph87%29.71 "Hg6 mi
10:03 AM45 °FSprinkles. Partly sunny.8 mph87%29.71 "Hg4 mi
9:20 AM43 °FBroken clouds.6 mph93%29.71 "HgN/A
8:48 AM43 °FBroken clouds.7 mph87%29.71 "HgN/A
7:20 AM43 °FLight rain. Passing clouds.9 mph93%29.68 "HgN/A
6:20 AM43 °FPartly cloudy.7 mph87%29.68 "HgN/A
5:20 AM41 °FPartly cloudy.6 mph93%29.68 "HgN/A
4:49 AM41 °FPartly cloudy.5 mph87%29.68 "HgN/A
4:20 AM41 °FPassing clouds.3 mph87%29.68 "HgN/A
3:20 AM39 °FPartly cloudy.6 mph87%29.71 "HgN/A
2:20 AM39 °FPartly cloudy.6 mph87%29.71 "HgN/A
1:20 AM39 °FPartly cloudy.5 mph81%29.74 "HgN/A
12:20 AM37 °FPartly cloudy.8 mph87%29.77 "HgN/A
11:20 PM
Tue, Nov 24
37 °FRain. Partly cloudy.5 mph87%29.77 "HgN/A
10:20 PM37 °FLight rain. Partly cloudy.5 mph87%29.77 "HgN/A
9:20 PM37 °FLight rain. Partly cloudy.3 mph87%29.80 "HgN/A
Weather by CustomWeather, © 2015

See weather overviewHow to use our weather pages